This is the latest recevied weather packets stored in our database for station/object N2WH. If no packets are shown the sender has not sent any weather packets the latest 1 day(s).
| Time | Temp. | Humidity | Pressure | Rain* | Wind** | Luminosity | Snow |
|---|---|---|---|---|---|---|---|
| 1778045231 | 18.89° C | 69% | 1011.3 hPa | 0 mm | 0.89 m/s, 223° | 0 W/m² | - |
| 1778044930 | 18.89° C | 68% | 1011.3 hPa | 0 mm | 0 m/s | 0 W/m² | - |
| 1778044627 | 18.89° C | 68% | 1011.3 hPa | 0 mm | 0 m/s | 0 W/m² | - |
| 1778044323 | 18.89° C | 67% | 1011.3 hPa | 0 mm | 0.45 m/s, 199° | 0 W/m² | - |
| 1778044021 | 18.89° C | 68% | 1011.3 hPa | 0 mm | 0.45 m/s, 167° | 0 W/m² | - |
| 1778043718 | 18.89° C | 68% | 1011.2 hPa | 0 mm | 0 m/s | 0 W/m² | - |
| 1778043415 | 18.89° C | 67% | 1011.3 hPa | 0 mm | 0.45 m/s, 136° | 0 W/m² | - |
| 1778043111 | 18.89° C | 67% | 1011.4 hPa | 0 mm | 0 m/s | 0 W/m² | - |
| 1778042809 | 19.44° C | 66% | 1011.2 hPa | 0 mm | 0.45 m/s, 169° | 0 W/m² | - |
| 1778042505 | 19.44° C | 66% | 1011.5 hPa | 0 mm | 0.45 m/s, 146° | 0 W/m² | - |
| 1778042203 | 19.44° C | 66% | 1011.6 hPa | 0 mm | 0.45 m/s, 198° | 0 W/m² | - |
| 1778041901 | 19.44° C | 65% | 1011.3 hPa | 0 mm | 0.89 m/s, 140° | 0 W/m² | - |
| 1778041600 | 19.44° C | 65% | 1011.4 hPa | 0 mm | 0.45 m/s, 213° | 0 W/m² | - |
| 1778041297 | 19.44° C | 65% | 1011.4 hPa | 0 mm | 0.89 m/s, 241° | 0 W/m² | - |
| 1778040996 | 19.44° C | 65% | 1011.5 hPa | 0 mm | 0.89 m/s, 120° | 0 W/m² | - |
| 1778040692 | 19.44° C | 65% | 1011.4 hPa | 0 mm | 0.45 m/s, 135° | 0 W/m² | - |
| 1778040390 | 19.44° C | 65% | 1011.5 hPa | 0 mm | 0 m/s | 0 W/m² | - |
| 1778040086 | 19.44° C | 64% | 1011.2 hPa | 0 mm | 0 m/s | 0 W/m² | - |
| 1778039783 | 20° C | 64% | 1011.2 hPa | 0 mm | 0 m/s | 0 W/m² | - |
| 1778039480 | 20° C | 64% | 1011.1 hPa | 0 mm | 0.89 m/s, 141° | 0 W/m² | - |
| 1778039177 | 20° C | 63% | 1011.2 hPa | 0 mm | 0.45 m/s, 149° | 0 W/m² | - |
| 1778038874 | 20° C | 63% | 1011.5 hPa | 0 mm | 0.45 m/s, 82° | 0 W/m² | - |
| 1778038571 | 20° C | 63% | 1011.4 hPa | 0 mm | 0.45 m/s, 174° | 0 W/m² | - |
| 1778038268 | 20° C | 63% | 1011.6 hPa | 0 mm | 0.45 m/s, 212° | 0 W/m² | - |
| 1778037966 | 20° C | 62% | 1011.4 hPa | 0 mm | 0.89 m/s, 225° | 0 W/m² | - |
* Rain latest hour (hover to see other rain measurements)
** Current wind speed in m/s (hover to see current wind gust speed)